Regional Weather Roundup
Issued by NWS Goodland, KS

Home | Current Version | Previous Version | Graphics & Text | Print | Product List | Glossary On
Versions: 1 2 3 4 5 6 7 8 9 10 11 12 13 14 15 16 17 18 19 20 21 22 23 24 25 26 27 28 29 30 31 32 33 34 35 36 37 38 39 40 41 42 43 44 45 46 47 48 49 50
000
ASUS43 KGLD 171108
RWRGLD

GOODLAND FORECAST AREA HOURLY WEATHER ROUNDUP
NATIONAL WEATHER SERVICE GOODLAND KS
400 AM MST WED JAN 17 2018

...OFFICIAL OBSERVATIONS...

CITY           SKY/WX    TMP DP  RH WIND       PRES   REMARKS
GOODLAND KS    CLEAR      9   0  67 S14       30.29F WCI  -7
HILL CITY KS   CLOUDY     8  -1  66 SW7       30.47F
IMPERIAL NEB   CLEAR      4   0  83 SW5       30.29F
MCCOOK NEB     CLEAR      3  -4  72 CALM      30.38F
AKRON CO       CLEAR     15   7  70 W13       30.22S WCI   1
BURLINGTON CO  CLEAR     12   1  61 S13       30.25F WCI  -3
LIMON CO       CLEAR      1  -2  87 CALM      30.21F
$$

...UNOFFICIAL OBSERVATIONS...

CITY           SKY/WX    TMP DP  RH WIND       PRES   REMARKS
COLBY KS       CLEAR     10   1  67 S8        30.36F
LENORA KS        N/A      7  32 100 SW10        N/A  WCI  -7
NORTON KS      CLEAR      9  -4  56 S8        30.41
SHARON SPRINGS   N/A      4  -4  68 CALM        N/A
TRENTON NEB      N/A      7  32 100 SW5         N/A
KIT CARSON CO    N/A      1  -7  70 CALM        N/A
YUMA CO        FAIR       5   1  85 W10       30.23F WCI -10
$$



USA.gov is the U.S. government's official web portal to all federal, state and local government web resources and services.